Location: Plainartige
(45.6866°N, 1.7993°E)
Time: 09:59:55
(UTC+00:00)

deb r/b Ablestar - Pass Details

Date: 29 September 2021
Orbit: 843 x 997 km, 67.7° (Epoch: 22 October)

Event Time Altitude Azimuth Distance (km) Brightness Sun altitude
Rises 20:45:24 0° 327° (NNW) 3,414 ? -32.2°
Reaches altitude 10° 20:47:51 10° 326° (NW) 2,482 ? -32.6°
Enters shadow 20:52:08 52° 311° (NW) 1,061 ? -33.2°
